www.pogodaiklimat.ru

Погода и климат >> Архив погоды >> Норвегия >> Киркенес аэропорт


ПОГОДА в Киркенес аэропорту

  • Прогноз погоды в Киркенес аэропорту
  • Монитор погоды в Киркенес аэропорту

АРХИВ ПОГОДЫ в Киркенес аэропорту

Время (UTC), дата Ветер
(напр.,м/с)
 
Видим.   Явления Облачность Т
(С)
Тd
(С)
f
(%)
Тe
(С)
Тes
(С)
Комфортность P
(гПа)
Po
(гПа)
Тmin
(С)
Tmax
(С)
R
(мм)
R24
(мм)
S
(см)
01 9.06 С 4
{8}
н/о н/о +4.7 +4.1 96 0 0 1016.8 1006.1
02 9.06 СВ 4
{6}
н/о н/о +4.8 +4.2 96 0 0 1016.7 1006.1
03 9.06 СВ 4
{7}
н/о н/о +4.8 +3.9 94 0 0 1017.2 1006.6
04 9.06 СВ 4
{6}
н/о н/о +4.7 +4.1 96 0 0 1017.6 1006.9
05 9.06 СВ 4
{7}
н/о н/о +4.7 +4.1 96 0 0 1017.9 1007.3
06 9.06 СВ 5
{8}
н/о н/о +5.0 +4.0 93 0 0 1018.1 1007.5 +4.6 +5.3
07 9.06 СВ 6
{8}
н/о н/о +5.1 +3.9 92 -0 -0 1018.0 1007.3
08 9.06 СВ 6
{8}
н/о н/о +5.4 +3.9 90 0 0 1018.0 1007.3
09 9.06 СВ 6
{8}
н/о н/о +5.7 +4.2 90 +1 +1 1017.9 1007.3
10 9.06 СВ 6
{8}
н/о н/о +5.6 +4.4 92 +1 +1 1017.9 1007.2
11 9.06 СВ 6
{9}
н/о н/о +5.5 +4.2 91 0 0 1017.6 1007.0
12 9.06 СВ 7
{9}
н/о н/о +5.3 +4.3 93 -0 -0 1016.8 1006.2
13 9.06 СВ 7
{9}
н/о н/о +5.1 +4.2 94 -1 -1 1016.0 1005.3
14 9.06 СВ 6
{10}
н/о н/о +5.1 +3.8 91 -0 -0 1015.8 1005.2
15 9.06 СВ 7
{10}
н/о н/о +5.1 +3.8 91 -1 -1 1015.3 1004.7
16 9.06 СВ 7
{10}
н/о н/о +5.0 +3.5 90 -1 -1 1014.6 1004.0
17 9.06 СВ 7
{10}
н/о н/о +4.8 +3.0 88 -1 -1 1014.0 1003.4
18 9.06 В 6
{10}
н/о н/о +4.4 +2.8 89 -1 -1 1013.8 1003.2 +4.4 +6.0
19 9.06 СВ 5
{9}
н/о н/о +4.2 +3.2 93 -1 -1 1012.8 1002.1
20 9.06 СВ 7
{9}
н/о н/о +4.1 +2.9 92 -2 -2 1011.8 1001.2
21 9.06 СВ 7
{9}
н/о н/о +4.0 +2.8 92 -2 -2 1011.3 1000.6
22 9.06 СВ 7
{10}
н/о н/о +3.7 +2.8 94 -2 -2 1010.3 999.7
23 9.06 В 7
{10}
н/о н/о +3.6 +2.7 94 -3 -3 1009.7 999.1
00 10.06 СВ 6
{10}
н/о н/о +3.5 +2.3 92 -2 -2 1008.7 998.1
01 10.06 СВ 6
{8}
н/о н/о +3.4 +2.4 93 -2 -2 1008.0 997.4
02 10.06 СВ 7
{10}
н/о н/о +3.1 +1.9 92 -3 -3 1007.6 997.0
03 10.06 СВ 7
{11}
н/о н/о +3.1 +1.9 92 -3 -3 1007.0 996.4
04 10.06 СВ 8
{11}
н/о н/о +3.2 +2.2 93 -3 -3 1006.9 996.3
05 10.06 СВ 7
{12}
н/о н/о +3.4 +2.7 95 -3 -3 1006.8 996.2
06 10.06 СВ 8
{12}
н/о н/о +2.5 +1.9 96 -4 -4 1007.0 996.4 +2.5 +4.4
07 10.06 СВ 9
{13}
н/о н/о +2.5 +1.6 94 -5 -5 1007.0 996.3
08 10.06 СВ 8
{14}
н/о н/о +2.7 +1.8 94 -4 -4 1006.9 996.3
09 10.06 СВ 9
{13}
н/о н/о +3.0 +2.1 94 -4 -4 1006.8 996.2
10 10.06 СВ 9
{14}
н/о н/о +3.0 +2.1 94 -4 -4 1007.5 996.9
11 10.06 СВ 10
{14}
н/о н/о +2.7 +2.0 95 -5 -5 1007.6 997.0
12 10.06 СВ 7
{15}
н/о н/о +2.9 +1.7 92 -3 -3 1008.1 997.5
13 10.06 СВ 9
{14}
н/о н/о +3.1 +1.9 92 -4 -4 1008.4 997.8
14 10.06 СВ 8
{13}
н/о н/о +2.8 +1.6 92 -4 -4 1009.2 998.5
15 10.06 СВ 10
{15}
н/о н/о +2.6 +1.3 91 -5 -5 1009.8 999.1
16 10.06 СВ 9
{14}
н/о н/о +2.6 +1.6 93 -5 -5 1010.6 1000.0
17 10.06 СВ 8
{13}
н/о н/о +2.3 +1.3 93 -5 -5 1011.7 1001.0
18 10.06 СВ 7
{15}
н/о н/о +2.3 +1.3 93 -4 -4 1012.6 1001.9 +2.3 +3.1
19 10.06 С 11
{14}
н/о н/о +2.0 +1.1 94 -6 -6 1013.6 1002.9
20 10.06 С 10
{16}
н/о н/о +1.6 +0.9 95 -6 -6 1014.4 1003.6
21 10.06
{15}
н/о н/о +1.2 +0.5 95 1015.5 1004.7
22 10.06 С 8
{12}
н/о н/о +1.0 +0.4 96 -6 -6 1016.4 1005.6
23 10.06 С 8
{12}
н/о н/о +1.1 +0.4 95 -6 -6 1017.1 1006.3
00 11.06 С 7
{16}
н/о н/о +1.0 +0.4 96 -6 -6 1018.0 1007.2
01 11.06 С 9
{13}
н/о н/о +1.2 +0.2 93 -6 -6 1018.8 1008.0
02 11.06 С 7
{13}
н/о н/о +1.2 +0.2 93 -6 -6 1019.7 1008.9
03 11.06
{13}
н/о н/о +1.1 -0.2 91 1020.6 1009.7
04 11.06 С 8
{12}
н/о н/о +2.3 +0.7 89 -5 -5 1021.1 1010.3
05 11.06
{12}
н/о н/о +2.3 -0.4 82 1022.1 1011.3
06 11.06 С 7
{13}
н/о н/о +2.7 -0.4 80 -3 -3 1022.9 1012.2 +0.7 +2.7
07 11.06 С 7
{11}
н/о н/о +3.3 -1.1 73 -3 -3 1023.8 1013.0
08 11.06 С 6
{10}
н/о н/о +3.2 -1.1 73 -2 -2 1024.6 1013.8
09 11.06 С 6
{9}
н/о н/о +2.9 +0.3 83 -3 -3 1025.5 1014.7
10 11.06 С 8
{11}
н/о н/о +3.3 -0.5 76 -3 -3 1026.1 1015.3
11 11.06 С 6
{9}
н/о н/о +4.9 -0.9 66 0 0 1026.6 1015.9
12 11.06 С 6
{11}
н/о н/о +4.3 -0.1 73 -1 -1 1027.0 1016.3
13 11.06 С 5
{8}
н/о н/о +5.7 -1.4 60 +2 +2 1027.0 1016.3
14 11.06
{7}
н/о н/о +5.0 -1.2 64 1027.2 1016.5
15 11.06 СЗ 5
{9}
н/о н/о +5.8 -1.1 61 +2 +2 1027.3 1016.6
16 11.06
{8}
н/о н/о +5.2 -1.9 60 1027.6 1016.8
17 11.06 С 4
{8}
н/о н/о +4.8 -1.2 65 +1 +1 1028.0 1017.2
18 11.06 СЗ 2
{9}
н/о н/о +3.9 +1.3 83 +1 +1 1028.1 1017.3 +2.4 +5.9
19 11.06 СЗ 4
{5}
н/о н/о +4.1 -0.3 73 -0 -0 1028.1 1017.4
20 11.06 СЗ 3
{6}
н/о н/о +4.1 -0.5 72 +1 +1 1028.1 1017.3
21 11.06 СЗ 3
{6}
н/о н/о +4.0 +0.4 77 0 0 1028.2 1017.4
22 11.06 СЗ 3
{4}
н/о н/о +3.6 +0.3 79 -0 -0 1028.5 1017.6
23 11.06 З 2
{4}
н/о н/о +3.5 +0.7 82 +1 +1 1028.5 1017.7
00 12.06 З 3
{6}
н/о н/о +3.4 +0.6 82 -0 -0 1028.6 1017.7
01 12.06 СЗ 3
{4}
н/о н/о +3.3 +0.5 82 -1 -1 1028.7 1017.9
02 12.06 СЗ 2
{3}
н/о н/о +3.6 0.0 77 +1 +1 1028.6 1017.8
03 12.06 СЗ 3
{6}
н/о н/о +3.9 -0.3 74 0 0 1028.7 1017.9
04 12.06 СЗ 4
{6}
н/о н/о +4.4 -0.4 71 0 0 1029.0 1018.2
05 12.06 СЗ 4
{6}
н/о н/о +5.0 0.0 70 +1 +1 1029.1 1018.3
06 12.06 СЗ 4
{6}
н/о н/о +5.3 -0.5 66 +2 +2 1029.2 1018.5 +3.3 +5.4
07 12.06 СЗ 3
{6}
н/о н/о +5.7 -0.1 66 +3 +3 1029.5 1018.7
08 12.06 З 2
{5}
н/о н/о +6.8 -0.6 59 +5 +5 1029.5 1018.8
09 12.06 З 3
{6}
н/о н/о +6.9 +0.2 62 +4 +4 1029.8 1019.1
10 12.06 З 4
{7}
н/о н/о +6.9 -0.3 60 +4 +4 1030.1 1019.4
11 12.06 З 3
{7}
н/о н/о +7.2 -0.7 57 +5 +5 1030.4 1019.7
12 12.06 СЗ 3
{7}
н/о н/о +8.8 +0.3 55 +7 +7 1029.9 1019.3
13 12.06 СЗ 4
{7}
н/о н/о +8.6 +0.6 57 +6 +6 1030.1 1019.4
14 12.06 СЗ 4
{7}
н/о н/о +8.9 -0.4 52 +6 +6 1029.8 1019.2
15 12.06 С 4
{6}
н/о н/о +8.9 +0.4 55 +6 +6 1029.8 1019.1
16 12.06 С 3
{6}
н/о н/о +7.9 +0.2 58 +6 +6 1029.7 1019.0
17 12.06 СВ 4
{5}
н/о н/о +7.7 +0.5 60 +5 +5 1029.6 1019.0
18 12.06 С 3
{7}
н/о н/о +7.4 -0.1 59 +5 +5 1029.6 1018.9 +5.3 +9.5
19 12.06 СВ 2
{4}
н/о н/о +6.3 +0.7 67 +4 +4 1029.5 1018.8
20 12.06 В 2
{3}
н/о н/о +5.6 +1.2 73 +3 +3 1029.7 1018.9
21 12.06 В 2
{3}
н/о н/о +5.4 +1.2 74 +3 +3 1029.7 1018.9
22 12.06 В 2
{3}
н/о н/о +5.0 +1.1 76 +3 +3 1029.6 1018.9
23 12.06 ЮВ 2
{3}
н/о н/о +4.6 +0.9 77 +2 +2 1029.8 1019.0
00 13.06 ЮВ 3
{4}
н/о н/о +4.7 +1.2 78 +1 +1 1029.6 1018.8
01 13.06 ЮВ 2
{3}
н/о н/о +5.2 +1.3 76 +3 +3 1029.2 1018.5
02 13.06 ЮВ 2
{3}
н/о н/о +5.6 +1.5 75 +3 +3 1029.1 1018.3
03 13.06 ЮВ 3
{4}
н/о н/о +6.9 +1.6 69 +4 +4 1028.5 1017.8
04 13.06 ЮВ 2
{4}
н/о н/о +6.8 +0.9 66 +5 +5 1028.5 1017.9
05 13.06 ЮВ 2
{3}
н/о н/о +6.7 +2.2 73 +5 +5 1028.3 1017.6
06 13.06 ЮВ 3
{4}
н/о н/о +6.8 +3.3 78 +4 +4 1028.0 1017.3 +4.5 +7.4
07 13.06 ЮВ 4
{5}
н/о н/о +7.4 +3.8 78 +4 +4 1027.4 1016.7
08 13.06 ЮВ 3
{5}
н/о н/о +9.8 +3.3 64 +8 +8 1026.9 1016.3
09 13.06 В 3
{5}
н/о н/о +11.5 +2.5 54 +10 +10 1026.5 1016.0
10 13.06 ЮВ 3
{8}
н/о н/о +12.0 +2.2 51 +11 +11 1026.1 1015.7
11 13.06 ЮВ 4
{4}
н/о н/о +11.8 +2.6 53 +10 +10 1025.3 1014.8
12 13.06 С 4
{8}
н/о н/о +11.6 +3.9 59 +10 +10 1025.1 1014.6
13 13.06 С 4
{5}
н/о н/о +11.5 +3.8 59 +10 +10 1024.5 1014.1
14 13.06
{6}
н/о н/о +11.7 +3.7 58 1024.2 1013.8
15 13.06
{7}
н/о н/о +9.3 +4.1 70 1024.2 1013.6
16 13.06
{7}
н/о н/о +10.2 +3.9 65 1023.9 1013.4
17 13.06 С 5
{8}
н/о н/о +8.1 +3.2 71 +5 +5 1023.6 1013.0
18 13.06
{8}
н/о н/о +6.5 +3.3 80 1023.5 1012.8 +6.5 +12.5
19 13.06 С 5
{7}
н/о н/о +6.3 +3.3 81 +2 +2 1023.4 1012.8
20 13.06 С 4
{7}
н/о н/о +5.5 +2.9 83 +2 +2 1023.5 1012.8
21 13.06 С 4
{6}
н/о н/о +5.3 +2.3 81 +1 +1 1023.4 1012.7
22 13.06 С 3
{5}
н/о н/о +4.6 +2.1 84 +1 +1 1023.5 1012.7
23 13.06 С 3
{4}
н/о н/о +4.3 +2.3 87 +1 +1 1023.5 1012.7
00 14.06 В 2
{7}
н/о н/о +3.6 +2.0 89 +1 +1 1023.1 1012.4
01 14.06 СВ 1
{3}
н/о н/о +4.2 +2.2 87 +3 +3 1022.6 1011.9
02 14.06 СЗ 2
{5}
н/о н/о +4.5 +2.2 85 +2 +2 1022.2 1011.5
03 14.06 З 1
{3}
н/о н/о +4.9 +2.6 85 +4 +4 1021.7 1011.0
04 14.06 СЗ 1
{4}
н/о н/о +5.5 +2.2 79 +4 +4 1021.0 1010.4
05 14.06 З 1
{5}
н/о н/о +5.9 +2.6 79 +5 +5 1020.7 1010.1
06 14.06 СЗ 3
{5}
н/о н/о +7.0 +2.3 72 +4 +4 1020.5 1009.9 +3.6 +7.0
07 14.06 З 3
{5}
н/о н/о +6.9 +0.8 65 +4 +4 1019.8 1009.2
08 14.06 СЗ 4
{6}
н/о н/о +8.7 +1.2 59 +6 +6 1019.1 1008.6
09 14.06 СЗ 6
{8}
н/о н/о +8.9 +0.9 57 +5 +5 1018.9 1008.4
10 14.06
{8}
н/о н/о +9.1 +1.1 57 1019.1 1008.6
11 14.06 С 4
{9}
н/о н/о +9.7 +1.1 55 +7 +7 1018.8 1008.3
12 14.06 С 6
{9}
н/о н/о +10.1 +1.0 53 +7 +7 1018.8 1008.3
13 14.06 С 6
{9}
н/о н/о +9.7 +1.1 55 +7 +7 1018.9 1008.4
14 14.06 С 6
{9}
н/о н/о +9.1 +1.1 57 +6 +6 1018.6 1008.1
15 14.06 С 6
{9}
н/о н/о +8.4 +1.8 63 +5 +5 1018.7 1008.1
16 14.06 С 5
{9}
н/о н/о +7.7 +1.6 65 +4 +4 1018.7 1008.1
17 14.06 С 6
{8}
н/о н/о +7.3 +1.8 68 +3 +3 1018.7 1008.1
18 14.06 С 5
{9}
н/о н/о +6.9 +2.0 71 +3 +3 1018.6 1008.0 +6.5 +10.8
19 14.06 С 4
{7}
н/о н/о +6.7 +2.0 72 +3 +3 1018.6 1008.0
20 14.06 С 4
{6}
н/о н/о +6.4 +1.7 72 +3 +3 1018.7 1008.0
21 14.06 С 4
{5}
н/о н/о +6.2 +1.9 74 +3 +3 1018.9 1008.3
22 14.06 С 4
{6}
н/о н/о +6.1 +2.0 75 +2 +2 1018.6 1008.0
23 14.06 С 4
{5}
н/о н/о +5.5 +2.3 80 +2 +2 1018.7 1008.1
00 15.06 З 3
{7}
н/о н/о +5.3 +1.4 76 +2 +2 1018.3 1007.6
01 15.06 СЗ 4
{5}
н/о н/о +5.3 +1.8 78 +1 +1 1018.2 1007.5
02 15.06 З 4
{6}
н/о н/о +5.5 +2.0 78 +2 +2 1018.2 1007.6
03 15.06 СЗ 4
{6}
н/о н/о +5.2 +1.7 78 +1 +1 1018.3 1007.6
04 15.06 СЗ 3
{5}
н/о н/о +5.3 +1.8 78 +2 +2 1017.9 1007.3
05 15.06 З 3
{5}
н/о н/о +5.4 +1.9 78 +2 +2 1017.8 1007.2
06 15.06 СЗ 3
{7}
н/о н/о +5.7 +2.2 78 +3 +3 1017.8 1007.2 +5.2 +6.9
07 15.06 З 3
{5}
н/о н/о +6.6 +2.5 75 +4 +4 1017.3 1006.7
08 15.06 СЗ 3
{6}
н/о н/о +7.1 +2.2 71 +4 +4 1017.0 1006.4
09 15.06 З 2
{7}
н/о н/о +9.2 +3.0 65 +8 +8 1016.4 1005.9
10 15.06 СЗ 4
{7}
н/о н/о +11.0 +2.8 57 +9 +9 1015.5 1005.1
11 15.06 СЗ 5
{8}
н/о н/о +12.2 +2.7 52 +10 +10 1014.8 1004.4
12 15.06 З 7
{10}
н/о н/о +14.5 +2.7 45 +13 +13 1013.7 1003.4
13 15.06 СЗ 6
{10}
н/о н/о +15.9 +3.0 42 +15 +15 1012.7 1002.5
14 15.06 СЗ 6
{10}
н/о н/о +16.4 +2.1 38 +15 +15 1012.0 1001.8
15 15.06 СЗ 7
{11}
н/о н/о +17.0 -0.2 31 +16 +16 1011.5 1001.3
16 15.06 СЗ 8
{12}
н/о н/о +15.6 +0.6 36 +14 +14 1011.1 1000.9
17 15.06 З 6
{10}
н/о н/о +14.8 +1.4 40 +13 +13 1010.6 1000.4
18 15.06 З 5
{12}
н/о н/о +13.9 +0.9 41 +12 +12 1010.3 1000.0 +5.7 +17.6
19 15.06 З 7
{10}
н/о н/о +13.3 +1.0 43 +11 +11 1009.9 999.6
20 15.06 З 8
{15}
н/о н/о +12.5 +0.3 43 +10 +10 1009.9 999.6
21 15.06 З 11
{16}
н/о н/о +11.3 +1.3 50 +8 +8 1009.0 998.6
22 15.06 З 10
{15}
н/о н/о +9.5 +1.4 57 +5 +5 1009.2 998.8
23 15.06 СЗ 10
{15}
н/о н/о +7.3 +2.2 70 +2 +2 1009.9 999.4
00 16.06 СЗ 10
{16}
н/о н/о +7.0 +2.5 73 +2 +2 1010.6 1000.1

 

Местоположение метеостанции Киркенес аэропорт (Норвегия): широта 69.73 долгота 29.90 высота над уровнем моря 89 м.

В архиве по умолчанию представлена погода в Киркенес аэропорту за последнюю неделю. Архивные данные за месяц целиком и за предыдущие месяцы, начиная с января 2011 года, Вы можете получить, выбрав интересующий диапазон дат из раскрывающегося списка и нажав кнопку "Ввод!".


*Определитесь, кто Вы:
робот инопланетянин человек

Внимание! Время в таблицах - всемирное. Для получения местного времени необходимо прибавить поправку, которая равна 1 ч.

Смотрите также архив погоды в соседних городах и на ближайших метеорологических станциях:

Погода в Пасвике (Норвегия) (32 км)
Погода в Вадсо аэропорту (Норвегия) (38 км)
Погода в Никеле (Мурманская область, Россия) (39 км)
Погода в Инари Кираккаярви (Финляндия) (42 км)
Погода в Порту Лиинахамари (Мурманская область, Россия) (57 км)
Погода в Нируде (Норвегия) (69 км)
Погода в Инари Вайла (Финляндия) (75 км)
Погода в Вардё аэропорту (Норвегия) (81 км)
Погода в Вайда-Губе (Мурманская область, Россия) (83 км)
Погода в Перевале (Мурманская область, Россия) (83 км)

Пояснения к столбцам:

Ветер - указаны скорость ветра в м/с - средняя за 10 мин, порывы в срок и между сроками (в фигурных скобках) и направление, откуда дует ветер: С - северный, СВ - северо-восточный, В - восточный, ЮВ - юго-восточный, Ю - южный, ЮЗ - юго-западный, З - западный, СЗ - северо-западный.
Видимость - горизонтальная дальность видимости в метрах или километрах. При видимости от 1 до 10 км при отсутствии осадков обычно наблюдается дымка, при ухудшении видимости до 1 км и менее - туман. В сухую погоду видимость может ухудшаться дымом, пылью или мглою.
Явления - указаны атмосферные явления, наблюдавшиеся в срок или в последний час перед сроком; фигурными скобками обозначены явления, наблюдавшиеся между сроками (за 1-3 часа до срока); квадратными скобками обозначены град или гололедные отложения с указанием их диаметра в мм.
Облачность - указаны через наклонную черту общая и нижняя облачность в баллах и высота нижней границы облаков в метрах; квадратными скобками обозначены формы облаков: Ci - перистые, Cs - перисто-слоистые, Cc - перисто-кучевые, Ac - высококучевые, As - высокослоистые, Sc - слоисто-кучевые, Ns - слоисто-дождевые, Cu - кучевые, Cb - кучево-дождевые. Подробнее классификацию облаков см. в Атласе облаков (PDF).
T - Температура воздуха - температура, измеренная на высоте 2 м над землей.
Td - Температура точки росы - температура, при понижении до которой содержащийся в воздухе водяной пар достигнет насыщения.
f - Относительная влажность воздуха - влажноcть воздуха, измеренная на высоте 2 м над землей.
Te - Эффективная температура - температура, которую ощущает одетый по сезону человек в тени. Характеристика душности погоды. При расчете учитывается влияние влажности воздуха и скорости ветра на теплоощущения человека.
Tes - Эффективная температура на солнце - температура, которую ощущает человек, с поправкой на солнечный нагрев. Характеристика знойности погоды. Зависит от высоты солнца над горизонтом, облачности и скорости ветра. Ночью, в пасмурную погоду, а также при ветре 12 м/с и более поправка равна нулю.
P - Атмосферное давление - приведенное к уровню моря атмосферное давление.
Po - Атмосферное давление - измеренное на уровне метеостанции атмосферное давление.
Tmin - Минимальная температура - минимум температуры воздуха на высоте 2 м над землей.
Tmax - Максимальная температура - максимум температуры воздуха на высоте 2 м над землей.
R - Количество осадков - Количество выпавших осадков за период времени, мм. При наведении курсора мыши на число - период времени, за который выпало указанное количество осадков.
R24 - Количество осадков - Количество выпавших осадков за 24 часа, мм.
S - Снежный покров - Высота снежного покрова, см. При наведении курсора мыши на число - состояние снежного покрова и степень покрытия местности в баллах.